TimeEDT,TemperatureF,Dew PointF,Humidity,Sea Level PressureIn,VisibilityMPH,Wind Direction,Wind SpeedMPH,Gust SpeedMPH,PrecipitationIn,Events,Conditions,WindDirDegrees,DateUTC
12:54 AM,66.9,55.9,68,30.14,10.0,Calm,Calm,-,N/A,,Mostly Cloudy,0,2008-07-16 04:54:00
1:54 AM,64.9,57.0,75,30.14,10.0,Calm,Calm,-,N/A,,Clear,0,2008-07-16 05:54:00
2:54 AM,63.0,57.0,81,30.13,10.0,Calm,Calm,-,N/A,,Clear,0,2008-07-16 06:54:00
3:54 AM,61.0,55.9,83,30.14,10.0,Calm,Calm,-,N/A,,Clear,0,2008-07-16 07:54:00
4:54 AM,61.0,57.0,87,30.14,10.0,Calm,Calm,-,N/A,,Scattered Clouds,0,2008-07-16 08:54:00
5:54 AM,60.1,57.0,90,30.17,9.0,Calm,Calm,-,N/A,,Scattered Clouds,0,2008-07-16 09:54:00
6:54 AM,59.0,55.9,90,30.19,7.0,Calm,Calm,-,N/A,,Clear,0,2008-07-16 10:54:00
7:54 AM,62.1,57.0,84,30.20,10.0,Calm,Calm,-,N/A,,Clear,0,2008-07-16 11:54:00
8:54 AM,66.9,59.0,76,30.21,10.0,Calm,Calm,-,N/A,,Clear,0,2008-07-16 12:54:00
9:54 AM,71.1,57.9,63,30.21,10.0,Calm,Calm,-,N/A,,Clear,0,2008-07-16 13:54:00
10:54 AM,73.9,60.1,62,30.21,10.0,Calm,Calm,-,N/A,,Mostly Cloudy,0,2008-07-16 14:54:00
11:54 AM,77.0,60.1,56,30.20,10.0,South,8.1,-,N/A,,Partly Cloudy,190,2008-07-16 15:54:00
12:54 PM,77.0,60.1,56,30.19,10.0,Variable,3.5,-,N/A,,Overcast,0,2008-07-16 16:54:00
1:54 PM,77.0,59.0,54,30.19,10.0,Variable,3.5,-,N/A,,Scattered Clouds,0,2008-07-16 17:54:00
2:54 PM,79.0,57.9,48,30.16,10.0,Calm,Calm,-,N/A,,Clear,0,2008-07-16 18:54:00
3:54 PM,81.0,55.9,42,30.14,10.0,Variable,3.5,-,N/A,,Scattered Clouds,0,2008-07-16 19:54:00
4:54 PM,81.0,59.0,47,30.14,10.0,Variable,4.6,-,N/A,,Scattered Clouds,0,2008-07-16 20:54:00
5:54 PM,81.0,57.0,44,30.14,10.0,Variable,3.5,-,N/A,,Partly Cloudy,0,2008-07-16 21:54:00
6:54 PM,80.1,57.9,47,30.14,10.0,ESE,4.6,-,N/A,,Clear,110,2008-07-16 22:54:00
7:54 PM,78.1,57.9,50,30.14,10.0,Variable,3.5,-,N/A,,Clear,0,2008-07-16 23:54:00
8:54 PM,75.0,59.0,57,30.15,10.0,Calm,Calm,-,N/A,,Clear,0,2008-07-17 00:54:00
9:54 PM,70.0,60.1,71,30.17,10.0,Calm,Calm,-,N/A,,Scattered Clouds,0,2008-07-17 01:54:00
10:54 PM,69.1,61.0,75,30.18,9.0,Calm,Calm,-,N/A,,Mostly Cloudy,0,2008-07-17 02:54:00
11:54 PM,66.9,63.0,87,30.19,6.0,Calm,Calm,-,N/A,,Partly Cloudy,0,2008-07-17 03:54:00